Regional Weather Roundup
Issued by NWS New Orleans/Baton Rouge, LA

Home | Current Version | Previous Version | Text Only | Print | Product List | Glossary Off
Versions: 1 2 3 4 5 6 7 8 9 10 11 12 13 14 15 16 17 18 19 20 21 22 23 24 25 26 27 28 29 30 31 32 33 34 35 36 37 38 39 40 41 42 43 44 45 46 47 48 49 50

405
ASUS44 KLIX 171410
RWRLIX
NEW ORLEANS REGIONAL WEATHER ROUNDUP
NATIONAL WEATHER SERVICE NEW ORLEANS LA
900 AM CDT WED SEP 17 2014

NOTE: "FAIR" INDICATES FEW OR NO CLOUDS BELOW 12,000 FEET WITH NO
      SIGNIFICANT WEATHER AND/OR OBSTRUCTIONS TO VISIBILITY.
      SKY/WX - SKY CONDITION AND SIGNIFICANT WEATHER.
      TMP - AIR TEMPERATURE.     DP    - DEWPOINT TEMPERATURE.
      RH  - RELATIVE HUMIDITY.   PRES  - PRESSURE.
      HI  - HEAT INDEX.          WCI   - WIND CHILL INDEX.

*  THESE STATIONS ARE NOT NWS OR FAA STATIONS AND ARE NOT UNDER
   NWS QUALITY CONTROL.

LAZ038-040-048-061>063-065>067-069-171500-
SOUTHEAST LOUISIANA

CITY           SKY/WX    TMP DP  RH WIND       PRES   REMARKS
N.O. AUDUBON     N/A     84  76  78 MISG        N/A
N.O. INTL ARPT PTSUNNY   82  73  74 NE7       29.98R
N.O. LAKEFRONT MOSUNNY   81  72  74 NE5       29.98S
N.O. DOWNTOWN*   N/A     81  70  69 CALM      29.99R
SLIDELL        MOSUNNY   77  72  84 CALM      29.98S
BATON ROUGE    MOSUNNY   77  72  84 CALM      29.99R
BOOTHVILLE     MOSUNNY   82  72  71 NE3       29.98R
BELLE CHASSE   PTSUNNY   81  72  74 CALM      29.98R
BOGALUSA*      PTSUNNY   75  72  90 CALM      30.00R
GALLIANO*      NOT AVBL
NEW ROADS*     CLOUDY    73  72  99 CALM      29.99S
GONZALES*      PTSUNNY   74  74 100 CALM      29.99R FOG
HAMMOND*       CLOUDY    75  72  88 CALM      30.01R
HOUMA*         MOSUNNY   79  70  73 N3        29.99R HAZE
PORT FOURCHON* SUNNY     82  73  74 N5        30.01S

$$

MSZ070-080>082-171500-
SOUTHERN MISSISSIPPI

CITY           SKY/WX    TMP DP  RH WIND       PRES   REMARKS
MCCOMB         CLOUDY    74  70  87 NE5       29.99S
GULFPORT       PTSUNNY   76  71  85 N3        29.98R
BILOXI         PTSUNNY   75  71  87 VRB2      29.98R
PASCAGOULA     PTSUNNY   76  72  87 VRB3      29.98R
STENNIS ARPT*  SUNNY     75  70  83 CALM      29.99R

$$

COASTAL OBSERVATIONS
LAKE AND NEARSHORE STATIONS

STATION/POSITION TIME  TEMP    WIND        PRES    WAVE
                       AIR SEA DIR/SP/G            HT/PER
                 (UTC) (F)     (DEG/KT/KT) (MB)    (FT/S)
PASCAGOULA       1400   75     350/  4/  6 1014.5
WAVELAND YACHT   1400   76     360/  3/  4 1014.6
GRAND ISLE       1400   80 86   40/  3/  5 1015.7
SOUTHWEST PASS   1400   83 90  340/  4/  5 1015.2
NEW CANAL        1400   79 81   40/  5/  6 1015.6
SHELL BEACH      1400   79 80   20/  5/  7 1015.0

OFFSHORE STATIONS

STATION/POSITION TIME  TEMP    WIND        PRES    WAVE
                       AIR SEA DIR/SP/G            HT/PER
                 (UTC) (F)     (DEG/KT/KT) (MB)    (FT/S)
64 S DAUPHIN ISL 1326   79 85  100/ 10/ 12 1014.9    2/ 4

$$




USA.gov is the U.S. government's official web portal to all federal, state and local government web resources and services.